TIMRA/MIDLANDA current weather conditions

sailwx.info

Wind from 060 at 5 knots

Air temperature 4.0° C
Visibility: greater than 5.4 NM
Dewpoint -1.0° C

Last reported at 2017-Apr-28 10:20 UTC.
Time now 2017-Apr-28 12:00 UTC

Location: N 62°32' E 017°27'.
View on Google Maps.

See reports from other nearby stations

  
Tides and Currents Weather Stations Pressure Air Temp Water Temp Dewpoint Dewpoint Depression Visibility Wind Speed Wind Dir Waves Ship Positions
date/time (UTC)wind fromknots sea level pressurealtimeterstation pressurevisibilityair tempwater tempwave heightnotes
2017-Apr-28 10:20 060 5 5.4 4.0
2017-Apr-28 09:50 080 6 5.4 3.0
2017-Apr-28 09:20 060 6 5.4 3.0
2017-Apr-28 08:50 030 6 5.4 4.0
2017-Apr-28 08:20 070 7 5.4 3.0
2017-Apr-28 07:50 5.4 3.0
2017-Apr-28 07:20 320 1 5.4 2.0
2017-Apr-28 06:50 310 4 5.4 2.0
2017-Apr-28 06:20 320 4 5.4 2.0
2017-Apr-28 05:50 320 5 5.4 2.0
2017-Apr-28 05:20 320 4 5.4 1.0
2017-Apr-28 04:50 320 5 5.4 1.0
2017-Apr-28 04:20 320 4 5.4 1.0
2017-Apr-28 03:50 320 4 5.4-0.0
2017-Apr-28 03:20 320 1 5.4-0.0
2017-Apr-28 02:50 5.4-0.0
2017-Apr-28 02:20 5.4-0.0
2017-Apr-28 01:50 5.4-0.0
2017-Apr-28 01:20 350 1 5.4-0.0 Snow grains.
2017-Apr-28 00:50 5.4-0.0 Light snow.
2017-Apr-28 00:20 050 4 1.5-0.0 Light rain snow.
2017-Apr-27 23:50 5.4 1.0 Light snow.
2017-Apr-27 23:20 5.4 1.0
2017-Apr-27 22:50 5.4 1.0
2017-Apr-27 22:20 5.4-0.0
2017-Apr-27 21:50 5.4 1.0
2017-Apr-27 21:20 5.4 2.0
2017-Apr-27 20:50 5.4 2.0
2017-Apr-27 20:20 310 4 5.4 2.0
2017-Apr-27 19:50 310 4 5.4 2.0
2017-Apr-27 19:20 310 4 5.4 3.0
2017-Apr-27 18:50 290 1 5.4 3.0
2017-Apr-27 18:20 5.4 4.0
2017-Apr-27 17:50 310 2 5.4 4.0
2017-Apr-27 17:20 5.4 4.0
2017-Apr-27 16:50 330 6 5.4 4.0
2017-Apr-27 16:20 020 5 5.4 5.0
2017-Apr-27 15:50 010 6 5.4 5.0
2017-Apr-27 15:20 050 6 5.4 7.0
2017-Apr-27 14:50 110 7 5.4 7.0
2017-Apr-27 14:20 360 7 5.4 6.0 Showers in the vicinity.
2017-Apr-27 13:50 140 12 5.4 8.0 Showers in the vicinity.
2017-Apr-27 13:20 190 1 5.4 8.0
2017-Apr-27 12:50 360 6 5.4 7.0
2017-Apr-27 12:20 280 5 5.4 9.0
2017-Apr-27 11:50 5.4 9.0
2017-Apr-27 11:20 5.4 9.0
2017-Apr-27 10:50 300 5 5.4 9.0
2017-Apr-27 10:20 310 5 5.4 8.0
2017-Apr-27 09:50 340 6 5.4 8.0
2017-Apr-27 09:20 330 6 5.4 7.0
2017-Apr-27 08:50 320 7 5.4 7.0
2017-Apr-27 08:20 330 7 5.4 6.0
2017-Apr-27 07:50 320 6 5.4 6.0
2017-Apr-27 07:20 290 5 5.4 5.0
2017-Apr-27 06:50 290 6 5.4 4.0
2017-Apr-27 06:20 300 5 5.4 3.0
2017-Apr-27 05:50 330 4 5.4 2.0
2017-Apr-27 05:20 5.4 2.0
2017-Apr-27 04:50 5.4-0.0
2017-Apr-27 04:20 5.4-1.0
2017-Apr-27 03:50 260 2 5.4-1.0
2017-Apr-27 03:20 270 2 5.4-2.0
2017-Apr-27 02:50 260 4 5.4-2.0
2017-Apr-27 02:20 200 1 5.4-3.0
2017-Apr-27 01:50 5.4-2.0
2017-Apr-27 01:20 280 2 5.4-2.0
2017-Apr-27 00:50 290 5 5.4-1.0
2017-Apr-27 00:20 310 6 5.4-0.0
2017-Apr-26 23:50 320 6 5.4-0.0
2017-Apr-26 23:20 300 6 5.4-0.0
2017-Apr-26 22:50 320 2 5.4-2.0
2017-Apr-26 22:20 310 4 5.4-1.0
2017-Apr-26 21:50 5.4-2.0
2017-Apr-26 21:20 5.4-2.0
2017-Apr-26 20:50 330 2 5.4-2.0
2017-Apr-26 20:20 5.4-0.0
2017-Apr-26 19:50 5.4 1.0
2017-Apr-26 19:20 5.4 2.0
2017-Apr-26 18:50 290 4 5.4 4.0
2017-Apr-26 18:20 300 6 5.4 5.0
2017-Apr-26 17:50 300 6 5.4 6.0
2017-Apr-26 17:20 320 7 5.4 6.0
2017-Apr-26 16:50 260 7 5.4 7.0
2017-Apr-26 16:20 310 8 5.4 8.0
2017-Apr-26 15:50 300 9 5.4 6.0
2017-Apr-26 15:20 310 13 5.4 6.0
2017-Apr-26 14:50 270 11 5.4 8.0
2017-Apr-26 14:20 320 8 5.4 9.0
2017-Apr-26 13:50 320 12 5.4 8.0
2017-Apr-26 13:20 320 14 5.4 7.0
2017-Apr-26 12:50 340 14 5.4 6.0
2017-Apr-26 12:20 310 12 5.4 7.0